Waarnemingen

Advertentie
Mijn weer
Kleine Brogel, België (6479): temperatuur & dauwpunt: 28.06.2020 02:00:00 - 04.07.2020 02:00:00 (CEST)Kleine Brogel, België (6479): windsnelheid & windstoten: 28.06.2020 02:00:00 - 04.07.2020 02:00:00 (CEST)Kleine Brogel, België (6479): windrichting: 28.06.2020 02:00:00 - 04.07.2020 02:00:00 (CEST)Kleine Brogel, België (6479): luchtdruk: 28.06.2020 02:00:00 - 04.07.2020 02:00:00 (CEST)Kleine Brogel, België (6479): zicht: 28.06.2020 02:00:00 - 04.07.2020 02:00:00 (CEST)
Datum & Tijd tt [°C] td [°C] ff [km/u] ff [kn] fx [km/u] fx [kn] dd ppp [hPa] vv [km]
04.07.2020 02:00:00 15,3 9,7 11 6 - - ZW 1017,3 20
04.07.2020 01:00:00 16,1 9,2 14 8 22 12 ZW 1017,7 20
04.07.2020 00:00:00 16,3 9,1 11 6 22 12 ZW 1017,7 20
03.07.2020 23:00:00 16,4 9,1 11 6 - - WZW 1017,7 20
03.07.2020 22:00:00 18,2 8,8 18 10 32 18 WZW 1017,5 20
03.07.2020 21:00:00 19,8 10,6 14 8 40 21 WZW 1017,2 20
03.07.2020 20:00:00 20,5 10,4 18 10 - - WZW 1016,7 20
03.07.2020 19:00:00 20,7 11,3 25 14 40 21 WZW 1016,7 20
03.07.2020 18:00:00 21,0 12,2 25 14 40 21 ZW 1017,0 20
03.07.2020 17:00:00 21,5 12,3 29 16 - - ZW 1017,2 20
03.07.2020 16:00:00 21,1 13,2 22 12 40 21 ZW 1017,3 20
03.07.2020 15:00:00 20,8 12,3 18 10 36 19 WZW 1017,3 20
03.07.2020 14:00:00 19,8 12,8 18 10 - - ZW 1018,1 20
03.07.2020 13:00:00 18,6 13,1 18 10 32 18 ZW 1018,2 20
03.07.2020 12:00:00 17,4 13,4 18 10 29 16 ZW 1018,2 20
03.07.2020 11:00:00 17,0 13,1 18 10 - - ZW 1017,8 20
03.07.2020 10:00:00 16,0 12,8 14 8 22 12 ZZW 1017,7 20
03.07.2020 09:00:00 14,8 12,8 11 6 18 10 ZZW 1017,6 20
03.07.2020 08:00:00 14,4 12,3 11 6 - - ZW 1017,5 20
03.07.2020 07:00:00 13,8 11,6 11 6 18 10 ZZW 1017,0 20
03.07.2020 06:00:00 13,6 11,4 7 4 22 12 ZW 1016,6 20
03.07.2020 05:00:00 14,1 11,2 14 8 - - ZW 1016,2 20
03.07.2020 04:00:00 13,8 10,5 11 6 18 10 ZW 1016,1 20
03.07.2020 03:00:00 13,6 10,2 14 8 18 10 ZW 1016,0 20
03.07.2020 02:00:00 13,3 10,0 7 4 - - ZW 1015,8 20
03.07.2020 01:00:00 14,2 10,1 11 6 14 8 ZW 1015,5 20
03.07.2020 00:00:00 14,3 11,6 7 4 7 4 ZW 1015,2 20
02.07.2020 23:00:00 15,1 12,3 4 2 - - N 1014,8 20
02.07.2020 22:00:00 15,5 13,0 4 2 7 4 - 1014,2 10
02.07.2020 21:00:00 15,6 12,8 4 2 32 18 N 1013,7 20
02.07.2020 20:00:00 19,0 10,5 11 6 - - W 1013,0 20
02.07.2020 19:00:00 19,1 11,5 11 6 22 12 W 1012,3 20
02.07.2020 18:00:00 19,1 12,6 14 8 32 18 W 1012,2 20
02.07.2020 17:00:00 20,0 12,1 21 11 - - W 1011,8 10
02.07.2020 16:00:00 19,2 12,7 14 8 40 21 WNW 1011,7 20
02.07.2020 15:00:00 17,8 12,3 22 12 40 21 WNW 1011,7 20
02.07.2020 14:00:00 21,2 12,7 18 10 - - WZW 1011,1 20
02.07.2020 13:00:00 21,7 13,3 18 10 25 14 ZW 1011,0 20
02.07.2020 12:00:00 20,8 14,5 14 8 25 14 ZW 1011,0 20
02.07.2020 11:00:00 19,5 14,2 11 6 - - WZW 1010,8 20
02.07.2020 10:00:00 18,0 13,2 18 10 25 14 WZW 1010,6 20
02.07.2020 09:00:00 16,3 13,3 11 6 22 12 ZW 1010,3 20
02.07.2020 08:00:00 15,8 12,6 14 8 - - ZW 1010,5 19
02.07.2020 07:00:00 14,6 12,2 14 8 22 12 ZW 1010,2 20
02.07.2020 06:00:00 14,3 11,8 11 6 18 10 ZW 1009,7 20
02.07.2020 05:00:00 - - - - - - - - -
02.07.2020 04:00:00 - - - - - - - - -
02.07.2020 03:00:00 - - - - - - - - -
02.07.2020 02:00:00 - - - - - - - - -
02.07.2020 01:00:00 - - - - - - - - -
02.07.2020 00:00:00 - - - - - - - - -
01.07.2020 23:00:00 - - - - - - - - -
01.07.2020 22:00:00 - - - - - - - - -
01.07.2020 21:00:00 19,3 13,0 14 8 25 14 WZW 1007,7 20
01.07.2020 20:00:00 20,5 13,4 18 10 - - W 1007,5 20
01.07.2020 19:00:00 21,1 14,5 22 12 43 23 WZW 1007,2 20
01.07.2020 18:00:00 21,1 15,9 22 12 43 23 WZW 1007,2 20
01.07.2020 17:00:00 20,4 15,8 22 12 - - WZW 1007,3 15
01.07.2020 16:00:00 20,1 17,2 21 11 32 18 W 1007,2 10
01.07.2020 15:00:00 19,1 17,7 18 10 43 23 WZW 1007,2 15
01.07.2020 14:00:00 20,5 17,1 25 14 - - ZW 1006,5 15
01.07.2020 13:00:00 19,2 17,1 22 12 36 19 ZW 1006,5 15
01.07.2020 12:00:00 18,6 17,3 18 10 32 18 ZW 1006,6 15
01.07.2020 11:00:00 17,7 17,1 18 10 - - ZW 1006,6 3,0
01.07.2020 10:00:00 17,5 16,9 14 8 29 16 ZZW 1006,7 10
01.07.2020 09:00:00 17,1 16,6 14 8 25 14 ZZW 1006,7 10
01.07.2020 08:00:00 17,0 16,6 16 9 - - ZW 1006,7 10
01.07.2020 07:00:00 16,7 16,4 11 6 25 14 ZZW 1006,3 8
01.07.2020 06:00:00 16,6 16,3 13 7 22 12 ZZW 1006,7 8
01.07.2020 05:00:00 16,5 16,2 15 8 - - ZZW 1007,0 10
01.07.2020 04:00:00 16,5 16,2 14 8 22 12 ZW 1007,2 6
01.07.2020 03:00:00 16,6 16,3 11 6 22 12 ZZW 1007,7 4,3
01.07.2020 02:00:00 16,7 16,2 14 8 - - ZW 1008,2 4,4
01.07.2020 01:00:00 17,2 15,9 18 10 25 14 ZW 1008,2 4,7
01.07.2020 00:00:00 17,7 15,1 11 6 29 16 ZW 1008,3 20
30.06.2020 23:00:00 17,7 15,1 18 10 - - ZW 1008,6 15
30.06.2020 22:00:00 17,2 15,1 18 10 25 14 ZW 1008,5 20
30.06.2020 21:00:00 17,1 15,2 11 6 25 14 ZW 1008,3 20
30.06.2020 20:00:00 17,3 15,0 13 7 - - ZW 1008,7 10
30.06.2020 19:00:00 18,2 13,8 4 2 7 4 N 1008,7 15
30.06.2020 18:00:00 18,0 14,1 7 4 40 21 W 1009,2 15
30.06.2020 17:00:00 18,6 13,0 25 14 - - ZW 1009,7 15
30.06.2020 16:00:00 19,7 11,3 22 12 47 25 ZW 1009,7 20
30.06.2020 15:00:00 20,6 10,5 29 16 47 25 ZW 1009,7 20
30.06.2020 14:00:00 20,9 10,1 25 14 - - ZW 1009,8 20
30.06.2020 13:00:00 19,7 9,0 32 18 50 27 ZW 1010,1 20
30.06.2020 12:00:00 20,7 9,9 36 19 50 27 ZW 1010,0 20
30.06.2020 11:00:00 17,1 9,3 32 18 - - WZW 1010,5 20
30.06.2020 10:00:00 17,1 10,0 29 16 43 23 ZW 1010,5 20
30.06.2020 09:00:00 16,2 10,4 25 14 40 21 ZW 1010,5 20
30.06.2020 08:00:00 14,3 9,3 25 14 - - ZW 1010,5 20
30.06.2020 07:00:00 13,6 8,8 21 11 36 19 ZW 1010,6 10
30.06.2020 06:00:00 11,6 8,4 14 8 22 12 ZZW 1010,8 20
30.06.2020 05:00:00 11,7 7,9 14 8 - - ZZW 1010,7 20
30.06.2020 04:00:00 12,6 7,5 14 8 29 16 ZW 1010,7 20
30.06.2020 03:00:00 13,1 7,0 18 10 29 16 ZW 1011,0 20
30.06.2020 02:00:00 13,6 6,4 13 7 - - ZW 1011,3 4,4
30.06.2020 01:00:00 14,3 5,7 22 12 50 27 ZW 1011,6 20
30.06.2020 00:00:00 15,3 5,8 25 14 43 23 WZW 1011,7 20
29.06.2020 23:00:00 16,0 5,9 29 16 - - WZW 1011,8 20
29.06.2020 22:00:00 16,7 5,9 25 14 40 21 WZW 1011,6 20
29.06.2020 21:00:00 18,0 5,6 25 14 50 27 WZW 1011,3 20
29.06.2020 20:00:00 18,4 6,1 29 16 - - WZW 1011,6 20
29.06.2020 19:00:00 19,1 6,5 32 18 47 25 WZW 1011,6 20
29.06.2020 18:00:00 19,4 5,7 36 19 50 27 WZW 1011,7 20
29.06.2020 17:00:00 19,6 4,8 32 18 - - WZW 1011,7 20
29.06.2020 16:00:00 20,3 7,2 32 18 50 27 WZW 1012,0 20
29.06.2020 15:00:00 19,7 6,1 29 16 50 27 WZW 1012,0 20
29.06.2020 14:00:00 19,3 6,3 29 16 - - ZW 1012,3 20
29.06.2020 13:00:00 19,1 6,2 29 16 43 23 WZW 1012,6 20
29.06.2020 12:00:00 18,2 6,9 22 12 40 21 WZW 1012,7 20
29.06.2020 11:00:00 16,8 8,5 22 12 - - ZW 1012,7 20
29.06.2020 10:00:00 16,3 8,9 18 10 32 18 ZW 1012,5 20
29.06.2020 09:00:00 16,2 9,6 18 10 29 16 ZW 1012,5 20
29.06.2020 08:00:00 14,7 9,2 18 10 - - ZW 1012,5 20
29.06.2020 07:00:00 13,6 9,3 11 6 22 12 ZW 1012,5 20
29.06.2020 06:00:00 14,1 8,8 11 6 14 8 ZW 1012,3 20
29.06.2020 05:00:00 13,9 8,5 7 4 - - ZZW 1012,3 20
29.06.2020 04:00:00 13,1 8,3 7 4 14 8 Z 1013,1 20
29.06.2020 03:00:00 12,9 8,0 4 2 11 6 N 1013,3 20
29.06.2020 02:00:00 11,3 7,3 4 2 - - N 1013,2 20
29.06.2020 01:00:00 13,8 7,1 4 2 11 6 N 1013,1 20
29.06.2020 00:00:00 15,0 7,6 7 4 11 6 ZW 1013,3 20
28.06.2020 23:00:00 15,5 8,1 7 4 - - WZW 1013,3 20
28.06.2020 22:00:00 16,7 8,7 4 2 11 6 N 1013,1 20
28.06.2020 21:00:00 19,2 8,2 7 4 22 12 W 1013,0 20
28.06.2020 20:00:00 20,6 6,9 14 8 - - WZW 1012,8 20
28.06.2020 19:00:00 20,8 6,7 18 10 36 19 ZW 1013,1 20
28.06.2020 18:00:00 22,4 6,4 22 12 40 21 WZW 1013,2 20
28.06.2020 17:00:00 21,6 6,4 22 12 - - WZW 1013,3 20
28.06.2020 16:00:00 21,8 7,8 25 14 47 25 ZW 1013,6 19
28.06.2020 15:00:00 20,4 7,9 32 18 50 27 WZW 1013,7 20
28.06.2020 14:00:00 19,6 8,4 22 12 - - WZW 1013,7 20
28.06.2020 13:00:00 19,7 8,5 25 14 40 21 ZW 1013,7 20
28.06.2020 12:00:00 16,9 10,3 22 12 36 19 ZW 1014,0 20
28.06.2020 11:00:00 17,9 10,8 22 12 - - ZW 1013,6 20
28.06.2020 10:00:00 17,2 10,4 25 14 36 19 ZW 1013,2 20
28.06.2020 09:00:00 16,8 10,5 25 14 32 18 ZW 1012,7 20
28.06.2020 08:00:00 16,3 10,5 22 12 - - WZW 1012,2 20
28.06.2020 07:00:00 16,7 12,5 14 8 25 14 WZW 1011,3 20
28.06.2020 06:00:00 16,6 12,6 14 8 22 12 WZW 1010,8 20
28.06.2020 05:00:00 16,4 14,1 7 4 - - WZW 1010,6 20
28.06.2020 04:00:00 16,5 14,5 8 4 14 8 WZW 1010,3 10
28.06.2020 03:00:00 18,2 13,4 4 2 11 6 N 1010,2 20
28.06.2020 02:00:00 18,4 13,2 7 4 - - W 1010,3 20

tt = temperatuur
td = dauwpunt
ff = windsnelheid
fx = windstoten
dd = windrichting
ppp = luchtdruk
vv = zicht

Weerstations in de omgeving